EN

Hourly Weather Tomarza

Today, 23 April, Friday

Time Temperature Precipitation Wind Pressure Humidity
00:00 +8°C° 0 mm 1 mps 642 mmHg 50%
01:00 +8°C° 0 mm 1 mps 642 mmHg 49%
02:00 +7°C° 0 mm 1 mps 641 mmHg 50%
03:00 +7°C° 0 mm 1 mps 641 mmHg 50%
04:00 +6°C° 0 mm 1 mps 641 mmHg 51%
05:00 +6°C° 0 mm 1 mps 641 mmHg 52%
06:00 +8°C° 0 mm 1 mps 642 mmHg 45%
07:00 +10°C° 0 mm 1 mps 643 mmHg 38%
08:00 +11°C° 0 mm 1 mps 643 mmHg 31%
09:00 +13°C° 0 mm 1 mps 644 mmHg 27%
10:00 +14°C° 0 mm 1 mps 644 mmHg 24%
11:00 +15°C° 0 mm 0 mps 644 mmHg 20%
12:00 +18°C° 0 mm 1 mps 644 mmHg 19%
13:00 +19°C° 0 mm 1 mps 644 mmHg 18%
14:00 +18°C° 0 mm 2 mps 644 mmHg 17%
15:00 +18°C° 0 mm 2 mps 643 mmHg 19%
16:00 +18°C° 0 mm 2 mps 643 mmHg 20%
17:00 +18°C° 0 mm 2 mps 643 mmHg 22%
18:00 +16°C° 0 mm 1 mps 643 mmHg 25%
19:00 +15°C° 0 mm 1 mps 642 mmHg 29%
20:00 +14°C° 0 mm 1 mps 642 mmHg 33%
21:00 +13°C° 0 mm 1 mps 642 mmHg 34%
22:00 +13°C° 0 mm 1 mps 642 mmHg 35%
23:00 +11°C° 0 mm 0 mps 642 mmHg 36%

Tomorrow, 24 April, Saturday

Time Temperature Precipitation Wind Pressure Humidity
00:00 +11°C° 0 mm 0 mps 641 mmHg 36%
01:00 +11°C° 0 mm 1 mps 641 mmHg 36%
02:00 +11°C° 0 mm 1 mps 641 mmHg 36%
03:00 +10°C° 0 mm 1 mps 641 mmHg 37%
04:00 +10°C° 0 mm 1 mps 641 mmHg 38%
05:00 +10°C° 0 mm 1 mps 640 mmHg 39%
06:00 +12°C° 0 mm 1 mps 641 mmHg 36%
07:00 +14°C° 0 mm 1 mps 642 mmHg 33%
08:00 +16°C° 0 mm 1 mps 642 mmHg 30%
09:00 +18°C° 0 mm 1 mps 642 mmHg 29%
10:00 +19°C° 0 mm 1 mps 642 mmHg 28%
11:00 +20°C° 0 mm 1 mps 643 mmHg 28%
12:00 +21°C° 0 mm 1 mps 642 mmHg 27%
13:00 +21°C° 0 mm 1 mps 642 mmHg 26%
14:00 +21°C° 0 mm 2 mps 642 mmHg 26%
15:00 +22°C° 0 mm 1 mps 642 mmHg 27%
16:00 +21°C° 0 mm 1 mps 641 mmHg 27%
17:00 +21°C° 0 mm 1 mps 641 mmHg 28%
18:00 +20°C° 0 mm 1 mps 641 mmHg 33%
19:00 +18°C° 0 mm 1 mps 640 mmHg 38%
20:00 +16°C° 0 mm 1 mps 640 mmHg 43%
21:00 +16°C° 0 mm 1 mps 640 mmHg 44%
22:00 +15°C° 0 mm 1 mps 640 mmHg 45%
23:00 +14°C° 0 mm 1 mps 639 mmHg 47%

Day after tomorrow, 25 April, Sunday

Time Temperature Precipitation Wind Pressure Humidity
00:00 +14°C° 0 mm 1 mps 639 mmHg 48%
01:00 +13°C° 0 mm 1 mps 639 mmHg 49%
02:00 +13°C° 0 mm 1 mps 638 mmHg 50%
03:00 +13°C° 0 mm 1 mps 638 mmHg 49%
04:00 +13°C° 0 mm 1 mps 638 mmHg 48%
05:00 +13°C° 0 mm 2 mps 638 mmHg 48%
06:00 +15°C° 0 mm 2 mps 638 mmHg 43%
07:00 +17°C° 0 mm 2 mps 638 mmHg 38%
08:00 +19°C° 0 mm 2 mps 639 mmHg 33%
09:00 +20°C° 0 mm 3 mps 639 mmHg 32%
10:00 +21°C° 0 mm 5 mps 639 mmHg 31%
11:00 +22°C° 0 mm 6 mps 639 mmHg 30%
12:00 +21°C° 0 mm 6 mps 639 mmHg 32%
13:00 +20°C° 0 mm 5 mps 639 mmHg 35%
14:00 +20°C° 0 mm 5 mps 639 mmHg 38%
15:00 +19°C° 0 mm 4 mps 638 mmHg 41%
16:00 +18°C° 0 mm 3 mps 638 mmHg 44%
17:00 +18°C° 0 mm 3 mps 637 mmHg 48%
18:00 +17°C° 0 mm 2 mps 637 mmHg 50%
19:00 +16°C° 0 mm 2 mps 637 mmHg 52%
20:00 +16°C° 0 mm 2 mps 636 mmHg 54%
21:00 +16°C° 0 mm 2 mps 636 mmHg 55%
22:00 +15°C° 0 mm 2 mps 635 mmHg 56%
23:00 +15°C° 0 mm 1 mps 635 mmHg 56%

26 April, Monday

Time Temperature Precipitation Wind Pressure Humidity
00:00 +15°C° 0 mm 1 mps 634 mmHg 58%
01:00 +14°C° 0 mm 1 mps 634 mmHg 60%
02:00 +14°C° 0 mm 1 mps 634 mmHg 62%
03:00 +14°C° 0 mm 2 mps 633 mmHg 64%
04:00 +13°C° 0 mm 2 mps 633 mmHg 65%
05:00 +13°C° 0 mm 2 mps 633 mmHg 67%
06:00 +14°C° 0 mm 3 mps 633 mmHg 59%
07:00 +16°C° 0 mm 3 mps 634 mmHg 50%
08:00 +18°C° 0 mm 4 mps 635 mmHg 42%
09:00 +19°C° 0 mm 5 mps 635 mmHg 39%
10:00 +19°C° 0 mm 5 mps 635 mmHg 36%
11:00 +20°C° 0 mm 6 mps 635 mmHg 32%
12:00 +19°C° 0.4 mm 6 mps 635 mmHg 38%
13:00 +17°C° 0.4 mm 6 mps 635 mmHg 43%
14:00 +16°C° 0.4 mm 5 mps 635 mmHg 49%
15:00 +14°C° 2.8 mm 5 mps 635 mmHg 60%
16:00 +12°C° 2.8 mm 4 mps 635 mmHg 71%
17:00 +10°C° 2.8 mm 3 mps 635 mmHg 81%
18:00 +10°C° 1.9 mm 2 mps 635 mmHg 81%
19:00 +9°C° 1.9 mm 2 mps 636 mmHg 81%
20:00 +10°C° 1.9 mm 1 mps 636 mmHg 80%
21:00 +9°C° 0 mm 2 mps 636 mmHg 82%
22:00 +8°C° 0 mm 2 mps 636 mmHg 85%
23:00 +8°C° 0 mm 2 mps 636 mmHg 87%

27 April, Tuesday

Time Temperature Precipitation Wind Pressure Humidity
00:00 +8°C° 0 mm 2 mps 636 mmHg 87%
01:00 +7°C° 0 mm 2 mps 636 mmHg 87%
02:00 +7°C° 0 mm 2 mps 636 mmHg 87%
03:00 +6°C° 0 mm 2 mps 637 mmHg 88%
04:00 +6°C° 0 mm 2 mps 637 mmHg 88%
05:00 +6°C° 0 mm 2 mps 637 mmHg 88%
06:00 +8°C° 0 mm 1 mps 637 mmHg 82%
07:00 +9°C° 0 mm 1 mps 638 mmHg 76%
08:00 +9°C° 0 mm 1 mps 638 mmHg 70%
09:00 +11°C° 0 mm 1 mps 638 mmHg 63%
10:00 +13°C° 0 mm 1 mps 639 mmHg 56%
11:00 +14°C° 0 mm 2 mps 639 mmHg 50%
12:00 +15°C° 0 mm 2 mps 639 mmHg 46%
13:00 +16°C° 0 mm 2 mps 639 mmHg 42%
14:00 +17°C° 0 mm 2 mps 639 mmHg 38%
15:00 +17°C° 0 mm 2 mps 639 mmHg 38%
16:00 +17°C° 0 mm 2 mps 639 mmHg 37%
17:00 +17°C° 0 mm 2 mps 639 mmHg 37%
18:00 +15°C° 0 mm 2 mps 639 mmHg 41%
19:00 +14°C° 0 mm 1 mps 639 mmHg 46%
20:00 +13°C° 0 mm 1 mps 639 mmHg 50%
21:00 +13°C° 0 mm 1 mps 639 mmHg 51%
22:00 +12°C° 0 mm 1 mps 640 mmHg 51%
23:00 +12°C° 0 mm 1 mps 640 mmHg 51%

28 April, Wednesday

Time Temperature Precipitation Wind Pressure Humidity
00:00 +11°C° 0 mm 1 mps 640 mmHg 51%
01:00 +11°C° 0 mm 1 mps 639 mmHg 51%
02:00 +11°C° 0 mm 1 mps 639 mmHg 51%
03:00 +11°C° 0 mm 1 mps 639 mmHg 51%
04:00 +11°C° 0 mm 1 mps 639 mmHg 51%
05:00 +11°C° 0 mm 1 mps 639 mmHg 51%
06:00 +13°C° 0 mm 1 mps 640 mmHg 46%
07:00 +15°C° 0 mm 1 mps 641 mmHg 40%
08:00 +18°C° 0 mm 1 mps 642 mmHg 34%
09:00 +19°C° 0 mm 2 mps 642 mmHg 33%
10:00 +20°C° 0 mm 3 mps 642 mmHg 31%
11:00 +22°C° 0 mm 4 mps 643 mmHg 29%
12:00 +21°C° 0 mm 4 mps 643 mmHg 32%
13:00 +21°C° 0 mm 4 mps 642 mmHg 36%
14:00 +20°C° 0 mm 4 mps 642 mmHg 39%
15:00 +20°C° 0 mm 3 mps 642 mmHg 40%
16:00 +20°C° 0 mm 3 mps 642 mmHg 41%
17:00 +20°C° 0 mm 3 mps 642 mmHg 42%
18:00 +19°C° 0 mm 3 mps 642 mmHg 49%
19:00 +17°C° 0 mm 3 mps 641 mmHg 57%
20:00 +16°C° 0 mm 3 mps 641 mmHg 65%
21:00 +15°C° 0 mm 2 mps 641 mmHg 67%
22:00 +15°C° 0 mm 2 mps 641 mmHg 70%
23:00 +14°C° 0 mm 2 mps 641 mmHg 72%
Show more

We Need Your Consent

Meteoprog and our Service Providers may store and access personal data such as cookies, device identifiers or other similar technologies on your device and process such data to personalise content and ads, as well as provide social media features and to analyse the traffic.

  • Store and/or access information on your device

    Cookies, device identifiers or other information can be stored or accessed on your device for the purposes indicated above.

  • Personalised ads and content, ad and content measurement, audience insights, and products development

    Ads and content can be personalised based on a profile. More data can be added to better personalise ads and content. Ad and content performance can be measured. Insights about the audience who saw the ads and content can be derived. Such data can be used to develop or improve user’s experience, systems and software.

By clicking ‘I Agree’ you will allow the use of indicated cookies, device identifiers, web beacons or other similar technologies. Your settings can be changed in the browser on your device.

For certain purposes, legitimate interests may be relied on, rather than consent. You can read more about this in our Privacy and Cookie Policy.